Hourly Weather Mérida

Today, 15 July, Wednesday

Time Temperature Precipitation Wind Pressure Humidity
00:00 +14°C° 0 mm 2 mps 593 mmHg 79%
01:00 +13°C° 0 mm 2 mps 592 mmHg 78%
02:00 +13°C° 0 mm 2 mps 592 mmHg 78%
03:00 +13°C° 0 mm 2 mps 592 mmHg 78%
04:00 +13°C° 0 mm 2 mps 591 mmHg 78%
05:00 +14°C° 0 mm 2 mps 592 mmHg 76%
06:00 +15°C° 0 mm 2 mps 593 mmHg 74%
07:00 +16°C° 0 mm 1 mps 594 mmHg 72%
08:00 +18°C° 0.1 mm 2 mps 595 mmHg 69%
09:00 +19°C° 0.1 mm 2 mps 596 mmHg 66%
10:00 +21°C° 0.1 mm 2 mps 596 mmHg 64%
11:00 +20°C° 0.7 mm 2 mps 595 mmHg 71%
12:00 +20°C° 0.7 mm 2 mps 595 mmHg 78%
13:00 +20°C° 0.7 mm 1 mps 594 mmHg 85%
14:00 +20°C° 1.3 mm 1 mps 593 mmHg 87%
15:00 +19°C° 1.3 mm 1 mps 593 mmHg 88%
16:00 +19°C° 1.3 mm 1 mps 592 mmHg 90%
17:00 +18°C° 0.7 mm 1 mps 592 mmHg 92%
18:00 +18°C° 0.7 mm 1 mps 592 mmHg 93%
19:00 +16°C° 0.7 mm 1 mps 592 mmHg 95%
20:00 +16°C° 0.2 mm 1 mps 592 mmHg 94%
21:00 +16°C° 0.2 mm 1 mps 593 mmHg 93%
22:00 +16°C° 0.2 mm 1 mps 593 mmHg 92%
23:00 +15°C° 0 mm 1 mps 593 mmHg 91%

Tomorrow, 16 July, Thursday

Time Temperature Precipitation Wind Pressure Humidity
00:00 +15°C° 0 mm 1 mps 592 mmHg 91%
01:00 +14°C° 0 mm 1 mps 592 mmHg 91%
02:00 +14°C° 0 mm 1 mps 591 mmHg 90%
03:00 +14°C° 0 mm 2 mps 591 mmHg 90%
04:00 +13°C° 0 mm 2 mps 591 mmHg 90%
05:00 +14°C° 0 mm 2 mps 592 mmHg 88%
06:00 +15°C° 0 mm 2 mps 593 mmHg 86%
07:00 +16°C° 0 mm 2 mps 593 mmHg 84%
08:00 +18°C° 0.1 mm 2 mps 594 mmHg 79%
09:00 +19°C° 0.1 mm 2 mps 595 mmHg 74%
10:00 +21°C° 0.1 mm 2 mps 596 mmHg 70%
11:00 +21°C° 0.8 mm 2 mps 595 mmHg 74%
12:00 +20°C° 0.8 mm 2 mps 594 mmHg 78%
13:00 +20°C° 0.8 mm 2 mps 594 mmHg 83%
14:00 +21°C° 1.2 mm 1 mps 593 mmHg 84%
15:00 +20°C° 1.2 mm 1 mps 593 mmHg 86%
16:00 +20°C° 1.2 mm 1 mps 592 mmHg 88%
17:00 +19°C° 0.8 mm 1 mps 592 mmHg 90%
18:00 +18°C° 0.8 mm 1 mps 592 mmHg 92%
19:00 +16°C° 0.8 mm 1 mps 592 mmHg 95%
20:00 +15°C° 0.4 mm 1 mps 592 mmHg 94%
21:00 +15°C° 0.4 mm 1 mps 592 mmHg 93%
22:00 +15°C° 0.4 mm 1 mps 592 mmHg 92%
23:00 +15°C° 0 mm 1 mps 592 mmHg 92%

Day after tomorrow, 17 July, Friday

Time Temperature Precipitation Wind Pressure Humidity
00:00 +15°C° 0 mm 1 mps 592 mmHg 91%
01:00 +15°C° 0 mm 1 mps 592 mmHg 91%
02:00 +14°C° 0 mm 2 mps 592 mmHg 91%
03:00 +14°C° 0 mm 2 mps 591 mmHg 91%
04:00 +14°C° 0 mm 2 mps 591 mmHg 91%
05:00 +15°C° 0 mm 2 mps 592 mmHg 89%
06:00 +16°C° 0 mm 2 mps 593 mmHg 86%
07:00 +17°C° 0 mm 2 mps 593 mmHg 84%
08:00 +17°C° 0.3 mm 2 mps 594 mmHg 84%
09:00 +18°C° 0.3 mm 2 mps 594 mmHg 83%
10:00 +19°C° 0.3 mm 2 mps 595 mmHg 83%
11:00 +19°C° 0.9 mm 2 mps 594 mmHg 80%
12:00 +20°C° 0.9 mm 2 mps 594 mmHg 78%
13:00 +22°C° 0.9 mm 1 mps 594 mmHg 75%
14:00 +21°C° 0.8 mm 1 mps 593 mmHg 78%
15:00 +21°C° 0.8 mm 1 mps 593 mmHg 81%
16:00 +21°C° 0.8 mm 1 mps 593 mmHg 84%
17:00 +19°C° 1 mm 1 mps 592 mmHg 88%
18:00 +18°C° 1 mm 1 mps 592 mmHg 91%
19:00 +16°C° 1 mm 1 mps 592 mmHg 95%
20:00 +15°C° 0.4 mm 1 mps 592 mmHg 94%
21:00 +15°C° 0.4 mm 1 mps 592 mmHg 93%
22:00 +14°C° 0.4 mm 1 mps 592 mmHg 92%
23:00 +14°C° 0.1 mm 1 mps 592 mmHg 92%

18 July, Saturday

Time Temperature Precipitation Wind Pressure Humidity
00:00 +14°C° 0.1 mm 1 mps 592 mmHg 92%
01:00 +14°C° 0.1 mm 2 mps 592 mmHg 92%
02:00 +14°C° 0.1 mm 2 mps 591 mmHg 91%
03:00 +14°C° 0.1 mm 1 mps 591 mmHg 91%
04:00 +14°C° 0.1 mm 1 mps 591 mmHg 90%
05:00 +15°C° 0 mm 1 mps 592 mmHg 89%
06:00 +16°C° 0 mm 2 mps 592 mmHg 87%
07:00 +17°C° 0 mm 2 mps 593 mmHg 86%
08:00 +18°C° 0.2 mm 2 mps 594 mmHg 83%
09:00 +19°C° 0.2 mm 2 mps 594 mmHg 80%
10:00 +20°C° 0.2 mm 2 mps 595 mmHg 77%
11:00 +20°C° 0.7 mm 2 mps 594 mmHg 78%
12:00 +20°C° 0.7 mm 2 mps 594 mmHg 80%
13:00 +21°C° 0.7 mm 1 mps 593 mmHg 82%
14:00 +21°C° 0.7 mm 1 mps 593 mmHg 80%
15:00 +21°C° 0.7 mm 1 mps 593 mmHg 78%
16:00 +22°C° 0.7 mm 1 mps 592 mmHg 76%
17:00 +20°C° 0.5 mm 1 mps 592 mmHg 82%
18:00 +18°C° 0.5 mm 1 mps 592 mmHg 88%
19:00 +16°C° 0.5 mm 1 mps 591 mmHg 94%
20:00 +16°C° 0.1 mm 1 mps 591 mmHg 93%
21:00 +15°C° 0.1 mm 1 mps 592 mmHg 91%
22:00 +15°C° 0.1 mm 1 mps 592 mmHg 90%
23:00 +15°C° 0 mm 1 mps 592 mmHg 90%

19 July, Sunday

Time Temperature Precipitation Wind Pressure Humidity
00:00 +14°C° 0 mm 2 mps 591 mmHg 90%
01:00 +14°C° 0 mm 2 mps 591 mmHg 90%
02:00 +14°C° 0 mm 2 mps 591 mmHg 89%
03:00 +14°C° 0 mm 2 mps 591 mmHg 89%
04:00 +14°C° 0 mm 2 mps 591 mmHg 89%
05:00 +15°C° 0 mm 1 mps 592 mmHg 87%
06:00 +16°C° 0 mm 1 mps 592 mmHg 84%
07:00 +18°C° 0 mm 1 mps 593 mmHg 81%
08:00 +19°C° 0.1 mm 1 mps 594 mmHg 77%
09:00 +20°C° 0.1 mm 2 mps 594 mmHg 74%
10:00 +21°C° 0.1 mm 2 mps 595 mmHg 70%
11:00 +21°C° 0.7 mm 2 mps 594 mmHg 73%
12:00 +21°C° 0.7 mm 2 mps 594 mmHg 77%
13:00 +20°C° 0.7 mm 2 mps 593 mmHg 81%
14:00 +21°C° 1.1 mm 1 mps 593 mmHg 83%
15:00 +21°C° 1.1 mm 1 mps 592 mmHg 84%
16:00 +20°C° 1.1 mm 1 mps 592 mmHg 86%
17:00 +19°C° 1 mm 1 mps 592 mmHg 89%
18:00 +18°C° 1 mm 1 mps 591 mmHg 92%
19:00 +16°C° 1 mm 1 mps 591 mmHg 96%
20:00 +16°C° 0.2 mm 1 mps 592 mmHg 95%
21:00 +15°C° 0.2 mm 1 mps 592 mmHg 94%
22:00 +15°C° 0.2 mm 1 mps 592 mmHg 94%
23:00 +15°C° 0.1 mm 1 mps 592 mmHg 93%

20 July, Monday

Time Temperature Precipitation Wind Pressure Humidity
00:00 +15°C° 0.1 mm 1 mps 592 mmHg 92%
01:00 +15°C° 0.1 mm 1 mps 591 mmHg 92%
02:00 +15°C° 0 mm 1 mps 591 mmHg 91%
03:00 +14°C° 0 mm 1 mps 591 mmHg 91%
04:00 +14°C° 0 mm 1 mps 591 mmHg 91%
05:00 +15°C° 0 mm 1 mps 591 mmHg 89%
06:00 +16°C° 0 mm 1 mps 592 mmHg 88%
07:00 +18°C° 0 mm 1 mps 593 mmHg 86%
08:00 +19°C° 0.3 mm 1 mps 593 mmHg 83%
09:00 +19°C° 0.3 mm 2 mps 594 mmHg 81%
10:00 +20°C° 0.3 mm 2 mps 595 mmHg 78%
11:00 +20°C° 1.1 mm 2 mps 594 mmHg 80%
12:00 +21°C° 1.1 mm 1 mps 594 mmHg 83%
13:00 +21°C° 1.1 mm 1 mps 593 mmHg 86%
14:00 +20°C° 2.1 mm 1 mps 592 mmHg 87%
15:00 +20°C° 2.1 mm 1 mps 592 mmHg 89%
16:00 +19°C° 2.1 mm 1 mps 591 mmHg 91%
17:00 +18°C° 1.4 mm 1 mps 591 mmHg 92%
18:00 +18°C° 1.4 mm 1 mps 591 mmHg 94%
19:00 +16°C° 1.4 mm 1 mps 591 mmHg 95%
20:00 +16°C° 0.4 mm 1 mps 592 mmHg 94%
21:00 +16°C° 0.4 mm 1 mps 592 mmHg 94%
22:00 +16°C° 0.4 mm 1 mps 592 mmHg 93%
23:00 +16°C° 0.4 mm 1 mps 592 mmHg 93%
Show more